Time,TemperatureF,DewpointF,PressureIn,WindDirection,WindDirectionDegrees,WindSpeedMPH,WindSpeedGustMPH,Humidity,HourlyPrecipIn,Conditions,Clouds,dailyrainin,SoftwareType,DateUTC
2013-04-21 00:08:00,54.5,44.0,29.98,North,360,0.0,-999.0,68,-99.99,,,0.00,weatherlink.com 1.10,2013-04-21 07:08:00,
2013-04-21 00:23:00,53.9,44.0,29.99,North,360,0.0,-999.0,69,-99.99,,,0.00,weatherlink.com 1.10,2013-04-21 07:23:00,
2013-04-21 00:39:00,53.2,44.0,29.99,North,360,0.0,-999.0,70,-99.99,,,0.00,weatherlink.com 1.10,2013-04-21 07:39:00,
2013-04-21 00:54:00,52.8,43.0,29.99,North,360,0.0,-999.0,70,-99.99,,,0.00,weatherlink.com 1.10,2013-04-21 07:54:00,
2013-04-21 01:09:00,52.5,43.0,29.99,North,360,0.0,-999.0,71,-99.99,,,0.00,weatherlink.com 1.10,2013-04-21 08:09:00,
2013-04-21 01:24:00,51.9,43.0,29.99,North,360,0.0,-999.0,73,-99.99,,,0.00,weatherlink.com 1.10,2013-04-21 08:24:00,
2013-04-21 01:39:00,51.3,43.0,29.99,North,360,0.0,-999.0,74,-99.99,,,0.00,weatherlink.com 1.10,2013-04-21 08:39:00,
2013-04-21 01:54:00,50.8,44.0,29.99,North,360,0.0,-999.0,76,-99.99,,,0.00,weatherlink.com 1.10,2013-04-21 08:54:00,
2013-04-21 02:09:00,50.1,43.0,29.99,North,360,0.0,-999.0,76,-99.99,,,0.00,weatherlink.com 1.10,2013-04-21 09:09:00,
2013-04-21 02:24:00,49.6,43.0,29.98,North,360,0.0,-999.0,77,-99.99,,,0.00,weatherlink.com 1.10,2013-04-21 09:24:00,
2013-04-21 02:39:00,49.2,43.0,29.98,North,360,0.0,-999.0,79,-99.99,,,0.00,weatherlink.com 1.10,2013-04-21 09:39:00,
2013-04-21 02:54:00,48.8,43.0,29.97,North,360,0.0,-999.0,79,-99.99,,,0.00,weatherlink.com 1.10,2013-04-21 09:54:00,
2013-04-21 03:09:00,48.6,43.0,29.97,North,360,0.0,-999.0,80,-99.99,,,0.00,weatherlink.com 1.10,2013-04-21 10:09:00,
2013-04-21 03:24:00,48.2,43.0,29.97,North,360,0.0,-999.0,81,-99.99,,,0.00,weatherlink.com 1.10,2013-04-21 10:24:00,
2013-04-21 03:39:00,47.9,43.0,29.97,North,360,0.0,-999.0,82,-99.99,,,0.00,weatherlink.com 1.10,2013-04-21 10:39:00,
2013-04-21 03:54:00,47.7,43.0,29.97,North,360,0.0,-999.0,83,-99.99,,,0.00,weatherlink.com 1.10,2013-04-21 10:54:00,
2013-04-21 04:09:00,47.6,43.0,29.96,North,360,0.0,-999.0,83,-99.99,,,0.00,weatherlink.com 1.10,2013-04-21 11:09:00,
2013-04-21 04:24:00,47.4,43.0,29.96,North,360,0.0,-999.0,84,-99.99,,,0.00,weatherlink.com 1.10,2013-04-21 11:24:00,
2013-04-21 04:39:00,47.1,43.0,29.96,North,360,0.0,-999.0,84,-99.99,,,0.00,weatherlink.com 1.10,2013-04-21 11:39:00,
2013-04-21 04:54:00,47.0,42.0,29.96,North,360,0.0,-999.0,84,-99.99,,,0.00,weatherlink.com 1.10,2013-04-21 11:54:00,
2013-04-21 05:09:00,46.7,43.0,29.96,North,360,0.0,-999.0,85,-99.99,,,0.00,weatherlink.com 1.10,2013-04-21 12:09:00,
2013-04-21 05:24:00,46.5,43.0,29.96,North,360,2.0,-999.0,86,-99.99,,,0.00,weatherlink.com 1.10,2013-04-21 12:24:00,
2013-04-21 05:39:00,46.2,42.0,29.96,North,360,0.0,-999.0,86,-99.99,,,0.00,weatherlink.com 1.10,2013-04-21 12:39:00,
2013-04-21 05:54:00,46.1,42.0,29.96,North,360,0.0,-999.0,86,-99.99,,,0.00,weatherlink.com 1.10,2013-04-21 12:54:00,
2013-04-21 06:09:00,46.1,42.0,29.97,North,360,0.0,-999.0,86,-99.99,,,0.00,weatherlink.com 1.10,2013-04-21 13:09:00,
2013-04-21 06:24:00,45.8,42.0,29.97,North,5,0.0,-999.0,86,-99.99,,,0.00,weatherlink.com 1.10,2013-04-21 13:24:00,
2013-04-21 06:39:00,45.5,42.0,29.97,North,360,1.0,-999.0,87,-99.99,,,0.00,weatherlink.com 1.10,2013-04-21 13:39:00,
2013-04-21 06:54:00,45.7,42.0,29.97,NNW,347,0.0,-999.0,87,-99.99,,,0.00,weatherlink.com 1.10,2013-04-21 13:54:00,
2013-04-21 07:09:00,46.2,43.0,29.98,NNW,347,0.0,-999.0,88,-99.99,,,0.00,weatherlink.com 1.10,2013-04-21 14:09:00,
2013-04-21 07:24:00,47.3,44.0,29.98,NNW,347,0.0,-999.0,88,-99.99,,,0.00,weatherlink.com 1.10,2013-04-21 14:24:00,
2013-04-21 07:39:00,49.4,46.0,29.99,NNW,339,0.0,-999.0,87,-99.99,,,0.00,weatherlink.com 1.10,2013-04-21 14:39:00,
2013-04-21 07:54:00,52.2,47.0,29.99,NNW,339,0.0,-999.0,83,-99.99,,,0.00,weatherlink.com 1.10,2013-04-21 14:54:00,
2013-04-21 08:09:00,54.7,48.0,29.99,NNW,339,0.0,-999.0,77,-99.99,,,0.00,weatherlink.com 1.10,2013-04-21 15:09:00,
2013-04-21 08:24:00,57.3,47.0,30.00,NNW,339,0.0,-999.0,69,-99.99,,,0.00,weatherlink.com 1.10,2013-04-21 15:24:00,
2013-04-21 08:39:00,60.7,47.0,29.99,NW,310,0.0,-999.0,62,-99.99,,,0.00,weatherlink.com 1.10,2013-04-21 15:39:00,
2013-04-21 08:54:00,63.7,48.0,29.99,NW,310,0.0,-999.0,58,-99.99,,,0.00,weatherlink.com 1.10,2013-04-21 15:54:00,
2013-04-21 09:09:00,66.6,49.0,29.99,NW,310,0.0,-999.0,53,-99.99,,,0.00,weatherlink.com 1.10,2013-04-21 16:09:00,
2013-04-21 09:25:00,69.8,49.0,29.99,NW,310,0.0,-999.0,48,-99.99,,,0.00,weatherlink.com 1.10,2013-04-21 16:25:00,
2013-04-21 09:40:00,72.7,48.0,29.99,NW,310,0.0,-999.0,42,-99.99,,,0.00,weatherlink.com 1.10,2013-04-21 16:40:00,
2013-04-21 09:55:00,75.1,45.0,29.99,NW,310,0.0,-999.0,34,-99.99,,,0.00,weatherlink.com 1.10,2013-04-21 16:55:00,
2013-04-21 10:10:00,78.5,37.0,29.98,NW,310,0.0,-999.0,22,-99.99,,,0.00,weatherlink.com 1.10,2013-04-21 17:10:00,
2013-04-21 10:25:00,81.1,36.0,29.98,NW,310,0.0,-999.0,20,-99.99,,,0.00,weatherlink.com 1.10,2013-04-21 17:25:00,
2013-04-21 10:40:00,82.2,36.0,29.98,SW,229,1.0,-999.0,19,-99.99,,,0.00,weatherlink.com 1.10,2013-04-21 17:40:00,
2013-04-21 10:55:00,83.0,40.0,29.98,ESE,102,0.0,-999.0,22,-99.99,,,0.00,weatherlink.com 1.10,2013-04-21 17:55:00,
2013-04-21 11:10:00,83.4,36.0,29.98,ESE,119,0.0,-999.0,18,-99.99,,,0.00,weatherlink.com 1.10,2013-04-21 18:10:00,
2013-04-21 11:25:00,84.0,36.0,29.98,SSW,213,0.0,-999.0,18,-99.99,,,0.00,weatherlink.com 1.10,2013-04-21 18:25:00,
2013-04-21 11:40:00,85.7,36.0,29.97,NW,319,3.0,-999.0,17,-99.99,,,0.00,weatherlink.com 1.10,2013-04-21 18:40:00,
2013-04-21 11:55:00,85.9,36.0,29.97,NW,317,4.0,-999.0,17,-99.99,,,0.00,weatherlink.com 1.10,2013-04-21 18:55:00,
2013-04-21 12:11:00,85.5,36.0,29.96,WNW,295,1.0,-999.0,17,-99.99,,,0.00,weatherlink.com 1.10,2013-04-21 19:11:00,
2013-04-21 12:26:00,86.3,35.0,29.96,WSW,258,0.0,-999.0,16,-99.99,,,0.00,weatherlink.com 1.10,2013-04-21 19:26:00,
2013-04-21 12:41:00,86.5,35.0,29.95,WSW,254,0.0,-999.0,16,-99.99,,,0.00,weatherlink.com 1.10,2013-04-21 19:41:00,
2013-04-21 12:56:00,88.2,37.0,29.94,WNW,299,0.0,-999.0,16,-99.99,,,0.00,weatherlink.com 1.10,2013-04-21 19:56:00,
2013-04-21 13:11:00,88.6,35.0,29.94,West,272,0.0,-999.0,15,-99.99,,,0.00,weatherlink.com 1.10,2013-04-21 20:11:00,
2013-04-21 13:26:00,88.6,35.0,29.93,NW,319,0.0,-999.0,15,-99.99,,,0.00,weatherlink.com 1.10,2013-04-21 20:26:00,
2013-04-21 13:41:00,90.1,33.0,29.93,SSW,212,3.0,-999.0,13,-99.99,,,0.00,weatherlink.com 1.10,2013-04-21 20:41:00,
2013-04-21 13:56:00,89.9,35.0,29.92,NNW,338,0.0,-999.0,14,-99.99,,,0.00,weatherlink.com 1.10,2013-04-21 20:56:00,
2013-04-21 14:11:00,89.9,46.0,29.92,West,279,4.0,-999.0,22,-99.99,,,0.00,weatherlink.com 1.10,2013-04-21 21:11:00,
2013-04-21 14:26:00,88.6,47.0,29.92,WNW,302,3.0,-999.0,24,-99.99,,,0.00,weatherlink.com 1.10,2013-04-21 21:26:00,
2013-04-21 14:41:00,88.0,48.0,29.92,WNW,284,4.0,-999.0,25,-99.99,,,0.00,weatherlink.com 1.10,2013-04-21 21:41:00,
2013-04-21 14:56:00,87.6,48.0,29.92,West,275,2.0,-999.0,25,-99.99,,,0.00,weatherlink.com 1.10,2013-04-21 21:56:00,
2013-04-21 15:11:00,87.4,45.0,29.92,WSW,253,2.0,-999.0,23,-99.99,,,0.00,weatherlink.com 1.10,2013-04-21 22:11:00,
2013-04-21 15:26:00,88.4,46.0,29.91,WSW,253,3.0,-999.0,23,-99.99,,,0.00,weatherlink.com 1.10,2013-04-21 22:26:00,
2013-04-21 15:41:00,88.0,46.0,29.91,WSW,258,0.0,-999.0,23,-99.99,,,0.00,weatherlink.com 1.10,2013-04-21 22:41:00,
2013-04-21 15:56:00,88.4,47.0,29.90,West,271,2.0,-999.0,24,-99.99,,,0.00,weatherlink.com 1.10,2013-04-21 22:56:00,
2013-04-21 16:11:00,87.8,47.0,29.89,WSW,254,0.0,-999.0,24,-99.99,,,0.00,weatherlink.com 1.10,2013-04-21 23:11:00,
2013-04-21 16:26:00,87.2,45.0,29.89,West,281,7.0,-999.0,23,-99.99,,,0.00,weatherlink.com 1.10,2013-04-21 23:26:00,
2013-04-21 16:41:00,86.3,43.0,29.89,West,270,5.0,-999.0,22,-99.99,,,0.00,weatherlink.com 1.10,2013-04-21 23:41:00,
2013-04-21 16:56:00,85.9,43.0,29.89,WNW,284,5.0,-999.0,22,-99.99,,,0.00,weatherlink.com 1.10,2013-04-21 23:56:00,
2013-04-21 17:11:00,86.1,42.0,29.89,West,281,4.0,-999.0,21,-99.99,,,0.00,weatherlink.com 1.10,2013-04-22 00:11:00,
2013-04-21 17:26:00,86.5,43.0,29.89,WNW,292,3.0,-999.0,22,-99.99,,,0.00,weatherlink.com 1.10,2013-04-22 00:26:00,
2013-04-21 17:41:00,85.7,41.0,29.89,WNW,294,4.0,-999.0,21,-99.99,,,0.00,weatherlink.com 1.10,2013-04-22 00:41:00,
2013-04-21 17:56:00,85.1,41.0,29.89,WSW,244,12.0,-999.0,21,-99.99,,,0.00,weatherlink.com 1.10,2013-04-22 00:56:00,
2013-04-21 18:11:00,83.4,40.0,29.88,WNW,298,2.0,-999.0,21,-99.99,,,0.00,weatherlink.com 1.10,2013-04-22 01:11:00,
2013-04-21 18:26:00,82.2,39.0,29.88,NW,311,0.0,-999.0,21,-99.99,,,0.00,weatherlink.com 1.10,2013-04-22 01:26:00,
2013-04-21 18:41:00,81.1,38.0,29.88,NW,318,2.0,-999.0,21,-99.99,,,0.00,weatherlink.com 1.10,2013-04-22 01:41:00,
2013-04-21 18:56:00,80.1,38.0,29.88,NW,319,2.0,-999.0,22,-99.99,,,0.00,weatherlink.com 1.10,2013-04-22 01:56:00,
2013-04-21 19:11:00,79.4,40.0,29.88,NW,319,0.0,-999.0,24,-99.99,,,0.00,weatherlink.com 1.10,2013-04-22 02:11:00,
2013-04-21 19:26:00,78.6,39.0,29.88,NW,321,3.0,-999.0,24,-99.99,,,0.00,weatherlink.com 1.10,2013-04-22 02:26:00,
2013-04-21 19:41:00,78.1,40.0,29.88,NW,317,0.0,-999.0,26,-99.99,,,0.00,weatherlink.com 1.10,2013-04-22 02:41:00,
2013-04-21 19:56:00,77.2,41.0,29.88,NW,317,0.0,-999.0,27,-99.99,,,0.00,weatherlink.com 1.10,2013-04-22 02:56:00,
2013-04-21 20:11:00,75.1,42.0,29.88,NW,317,0.0,-999.0,31,-99.99,,,0.00,weatherlink.com 1.10,2013-04-22 03:11:00,
2013-04-21 20:26:00,72.5,43.0,29.89,NW,317,0.0,-999.0,35,-99.99,,,0.00,weatherlink.com 1.10,2013-04-22 03:26:00,
2013-04-21 20:41:00,70.6,44.0,29.89,NW,317,0.0,-999.0,38,-99.99,,,0.00,weatherlink.com 1.10,2013-04-22 03:41:00,
2013-04-21 20:56:00,69.4,44.0,29.91,NW,317,0.0,-999.0,40,-99.99,,,0.00,weatherlink.com 1.10,2013-04-22 03:56:00,
2013-04-21 21:11:00,67.8,44.0,29.91,NW,317,0.0,-999.0,43,-99.99,,,0.00,weatherlink.com 1.10,2013-04-22 04:11:00,
2013-04-21 21:26:00,66.0,44.0,29.91,NW,317,0.0,-999.0,46,-99.99,,,0.00,weatherlink.com 1.10,2013-04-22 04:26:00,
2013-04-21 21:41:00,65.0,45.0,29.92,NW,317,0.0,-999.0,48,-99.99,,,0.00,weatherlink.com 1.10,2013-04-22 04:41:00,
2013-04-21 21:56:00,64.0,45.0,29.92,NW,317,0.0,-999.0,50,-99.99,,,0.00,weatherlink.com 1.10,2013-04-22 04:56:00,
2013-04-21 22:11:00,63.4,45.0,29.92,NW,317,0.0,-999.0,52,-99.99,,,0.00,weatherlink.com 1.10,2013-04-22 05:11:00,
2013-04-21 22:26:00,62.4,45.0,29.92,NW,317,0.0,-999.0,54,-99.99,,,0.00,weatherlink.com 1.10,2013-04-22 05:26:00,
2013-04-21 22:41:00,61.5,45.0,29.92,NW,317,0.0,-999.0,56,-99.99,,,0.00,weatherlink.com 1.10,2013-04-22 05:41:00,
2013-04-21 22:56:00,60.9,45.0,29.92,NW,317,0.0,-999.0,57,-99.99,,,0.00,weatherlink.com 1.10,2013-04-22 05:56:00,
2013-04-21 23:11:00,60.2,46.0,29.92,NW,317,0.0,-999.0,59,-99.99,,,0.00,weatherlink.com 1.10,2013-04-22 06:11:00,
2013-04-21 23:26:00,59.6,45.0,29.92,NW,317,0.0,-999.0,59,-99.99,,,0.00,weatherlink.com 1.10,2013-04-22 06:26:00,
2013-04-21 23:41:00,59.0,46.0,29.92,NW,317,0.0,-999.0,62,-99.99,,,0.00,weatherlink.com 1.10,2013-04-22 06:41:00,
2013-04-21 23:56:00,58.1,46.0,29.92,NW,317,0.0,-999.0,64,-99.99,,,0.00,weatherlink.com 1.10,2013-04-22 06:56:00,